This is the latest recevied weather packets stored in our database for station/object KD2VWU. If no packets are shown the sender has not sent any weather packets the latest 10 day(s).
| Time | Temp. | Humidity | Pressure | Rain* | Wind** | Luminosity | Snow |
|---|---|---|---|---|---|---|---|
| 1777620987 | 5.56° C | 83% | 1007.8 hPa | 0 mm | - | - | - |
| 1777620682 | 5.56° C | 84% | 1007.7 hPa | 0 mm | - | - | - |
| 1777620378 | 5.56° C | 83% | 1007.7 hPa | 0 mm | - | - | - |
| 1777620076 | 5.56° C | 83% | 1007.8 hPa | 0 mm | - | - | - |
| 1777619772 | 5.56° C | 84% | 1007.9 hPa | 0 mm | - | - | - |
| 1777619467 | 5.56° C | 84% | 1007.8 hPa | 0 mm | - | - | - |
| 1777619162 | 5.56° C | 85% | 1007.9 hPa | 0 mm | - | - | - |
| 1777618857 | 5.56° C | 85% | 1007.9 hPa | 0 mm | - | - | - |
| 1777618556 | 5.56° C | 85% | 1007.4 hPa | 0 mm | - | - | - |
| 1777618254 | 6.11° C | 86% | 1007.4 hPa | 0 mm | - | - | - |
| 1777617950 | 5.56° C | 87% | 1007.6 hPa | 0 mm | - | - | - |
| 1777617646 | 5.56° C | 85% | 1007.9 hPa | 0 mm | - | - | - |
| 1777617342 | 5.56° C | 85% | 1007.7 hPa | 0 mm | - | - | - |
| 1777617040 | 6.11° C | 85% | 1007.6 hPa | 0 mm | - | - | - |
| 1777616131 | 6.67° C | 83% | 1007.4 hPa | 0 mm | - | - | - |
| 1777615828 | 6.67° C | 83% | 1007.6 hPa | 0 mm | - | - | - |
| 1777615526 | 6.67° C | 83% | 1007.6 hPa | 0 mm | - | - | - |
| 1777615221 | 7.22° C | 82% | 1007.6 hPa | 0 mm | - | - | - |
| 1777614915 | 7.22° C | 82% | 1007.6 hPa | 0 mm | - | - | - |
| 1777614613 | 7.22° C | 82% | 1007.7 hPa | 0 mm | - | - | - |
| 1777614308 | 7.22° C | 82% | 1007.9 hPa | 0 mm | - | - | - |
| 1777614003 | 7.22° C | 81% | 1007.8 hPa | 0 mm | - | - | - |
| 1777613699 | 7.78° C | 81% | 1007.6 hPa | 0 mm | - | - | - |
| 1777613396 | 7.78° C | 80% | 1007.4 hPa | 0 mm | - | - | - |
| 1777613092 | 7.78° C | 79% | 1007.5 hPa | 0 mm | - | - | - |
* Rain latest hour (hover to see other rain measurements)
** Current wind speed in m/s (hover to see current wind gust speed)